Regional Weather Roundup
Issued by NWS Charleston, WV

Home | Current Version | Previous Version | Graphics & Text | Print | Product List | Glossary On
Versions: 1 2 3 4 5 6 7 8 9 10 11 12 13 14 15 16 17 18 19 20 21 22 23 24 25 26 27
000
ASUS41 KRLX 290010
RWRRLX
West Virginia Regional Weather Roundup
National Weather Service Charleston WV
800 PM EDT TUE MAR 28 2017

Note: "fair" indicates few or no clouds below 12,000 feet with no
significant weather and/or obstructions to visibility.

WVZ003-290100-
Northern Panhandle of West Virginia

CITY           SKY/WX    TMP DP  RH WIND       PRES   REMARKS
WHEELING       CLOUDY    52  46  80 NW13      30.04R
$$

WVZ009-290100-
Northwest West Virginia

CITY           SKY/WX    TMP DP  RH WIND       PRES   REMARKS
PARKERSBURG    CLOUDY    58  48  69 NW8       30.05R
$$

WVZ006-290100-
Western West Virginia

CITY           SKY/WX    TMP DP  RH WIND       PRES   REMARKS
HUNTINGTON     CLOUDY    59  55  87 NW6       30.02R
$$

WVZ015-290100-
West Central West Virginia

CITY           SKY/WX    TMP DP  RH WIND       PRES   REMARKS
CHARLESTON     CLOUDY    61  53  75 NW9       30.00R
$$

WVZ022-031-290100-
North Central West Virginia

CITY           SKY/WX    TMP DP  RH WIND       PRES   REMARKS
CLARKSBURG     CLOUDY    57  51  80 N7        30.01R
MORGANTOWN     CLOUDY    56  50  80 NW3       30.01R
$$

WVZ025-035-042-045-290100-
Southern West Virginia

CITY           SKY/WX    TMP DP  RH WIND       PRES   REMARKS
BECKLEY        MOCLDY    56  50  80 NW6       30.02R
LOGAN          CLOUDY    59  52  77 CALM      30.02R
BLUEFIELD      CLOUDY    53  48  83 W6        30.03R
LEWISBURG      CLOUDY    57  49  74 CALM      29.99S
$$

WVZ047-290100-
Northern Mountains of West Virginia

CITY           SKY/WX    TMP DP  RH WIND       PRES   REMARKS
ELKINS         CLOUDY    57  51  80 NW8       29.99R
$$

WVZ052-290100-
Eastern Panhandle of West Virginia

CITY           SKY/WX    TMP DP  RH WIND       PRES   REMARKS
MARTINSBURG    CLOUDY    60  58  92 N3        29.90S
PETERSBURG     CLOUDY    65  53  63 NW3       29.94R
$$




USA.gov is the U.S. government's official web portal to all federal, state and local government web resources and services.